{"data":{"norad_id":67370,"intl_designator":"2026-004H","name":"LEMUR-2-GRAM-E-SUE","alt_names":[],"object_type":"PAYLOAD","status":"ACTIVE","operator":null,"country":"US","launch_date":"2026-01-11","launch_site_code":"AFWTR","launch_vehicle":null,"mission":null,"orbit_class":"UNKNOWN","rcs_meters":null,"size_class":null,"mass_kg":null,"dimensions":null,"purposes":["earth_obs"],"wikipedia_slug":null,"has_3d_model":false,"image_url":null,"decayed_at":null,"tle_current":{"epoch":"2026-09-19T22:34:39.798624Z","epoch_age_seconds":62782,"freshness":"FRESH","line1":"1 67370U 26004H   26262.94073841  .00002971  00000+0  32211-3 0  9999","line2":"2 67370  97.8046 260.0638 0006804 179.3396 180.7831 14.88926966 37399","mean_motion":14.88926966,"eccentricity":0.0006804,"inclination_deg":97.8046,"raan_deg":260.0638,"arg_perigee_deg":179.3396,"mean_anomaly_deg":180.7831,"bstar":0.00032211,"rev_number":3739,"period_min":96.713944530708,"perigee_km":596.53812176497,"apogee_km":606.03572183776,"semimajor_km":6979.4239218014,"source":"CELESTRAK","updated_at":"2026-09-20T09:00:34.882455Z"}}}